Вернуться в каталог

STARLINK-35022

АктивенСвязьVLEO
NORAD 65409·PAYLOAD·🇺🇸 United States

Запущен Aug 31, 2025 с Cape Canaveral Space Force Station

Loading…

Ближайшие Пролёты (ближайшие 24 часа)

TLE

СвежийSource: CelesTrak SupGP

Эпоха: Sep 15, 2026, 03:38 UTC

1 65409C 25192F   26258.15187500 -.00025026  00000+0 -80490-3 0  2581
2 65409  53.1590  70.6898 0001265  87.1118 311.0483 15.31709207    13

Отслеживайте STARLINK-35022 в реальном времени с AllMySat

Download on the App Store